[[{"header":{"parameterUnit":"m.s-1","parameterCategory":2,"la1":30.2991,"la2":30.254,"lo1":-89.0895,"lo2":-89.0444,"dy":0.0017,"dx":0.0017,"nx":28,"ny":28,"refTime":"2025-04-25T09:00:00:Z","depth":"0","parameterNumber":2,"parameterNumberName":"U-component_of_CURRENTS"},"data":[0,0,0,0,0,0,0,0,0,0,0,0,0,0,0,0,0,0,0,0,0,0,0,0,0,0,0,0,0,0,0,0,0,0,0,0,0,0,0,0,0,0,0,0,0,0,0,0,0,0,0,0,0,0,0,0,0,0,0.2661,0.2661,0,0.2663,0.2662,0.2662,0.2634,0.2634,0.2633,0.2633,0.2572,0.2571,0.257,0,0,0,0,0,0,0,0,0,0,0,0,0,0.2599,0.26,0.2661,0.2661,0.2662,0.2663,0.2662,0.2662,0.2634,0.2634,0.2633,0.2633,0.2573,0.2571,0.257,0,0,0,0,0,0,0,0,0,0,0,0,0,0.2612,0.2601,0.2661,0.2651,0.2651,0.2663,0.2662,0.2662,0.2634,0.2633,0.2633,0.2632,0.2573,0.2571,0.2569,0.2569,0,0,0.2563,0.2563,0,0,0,0,0,0,0,0,0.2611,0.2614,0.2652,0.2652,0.2651,0.2651,0.2619,0.2629,0.2634,0.2636,0.2633,0.2632,0.2596,0.2592,0.2589,0.2566,0.2563,0.2563,0.2562,0.2561,0.2561,0,0,0,0,0,0,0,0.261,0.2613,0.2657,0.2653,0.2652,0.2635,0.2636,0.262,0.2614,0.2636,0.2635,0.2642,0.2595,0.259,0.2587,0.2562,0.2563,0.2562,0.2561,0.256,0.2599,0.2601,0,0,0,0,0,0,0.2622,0.2613,0.2657,0.2658,0.2634,0.2637,0.2638,0.2648,0.2616,0.2612,0.2642,0.2641,0.2594,0.2589,0.2584,0.2671,0.2561,0.256,0.2558,0.2597,0.26,0.2602,0,0,0,0,0,0,0.262,0.2626,0.2657,0.2638,0.2642,0.264,0.2651,0.2649,0.2658,0.2623,0.2617,0.2656,0.2593,0.2587,0.2596,0.2665,0.2559,0.2557,0.2595,0.2598,0.2601,0.2787,0,0,0,0,0,0,0.2619,0.2625,0.2633,0.2639,0.2643,0.2693,0.2652,0.2649,0.2665,0.2663,0.2632,0.2625,0.2592,0.26,0.2594,0.2661,0.2555,0.2592,0.2596,0.26,0.2779,0.2797,0.2812,0,0,0,0,0,0.2616,0.2637,0.2634,0.2639,0.2656,0.2695,0.2696,0.2688,0.2666,0.2689,0.2666,0.2627,0.2622,0.26,0.2593,0.2661,0.259,0.2595,0.26,0.2771,0.2793,0.2812,0,0,0,0,0,0,0.2605,0.2636,0.2633,0.2658,0.2688,0.2692,0.2711,0.2702,0.2701,0.2698,0.265,0.2643,0.2683,0.2636,0.2613,0.2682,0.2601,0.2605,0.2734,0.2754,0.2771,0.2825,0.2554,0,0,0,0,0,0.261,0.2641,0.2664,0.2689,0.2707,0.271,0.2721,0.2726,0.2728,0.2727,0.2709,0.269,0.2697,0.2696,0.2689,0.2718,0.2738,0.2756,0.2773,0.2788,0.2827,0.2921,0.2952,0.2618,0.2618,0.2618,0,0,0.2612,0.2635,0.265,0.2691,0.2707,0.2762,0.2716,0.2756,0.2806,0.272,0.2773,0.2751,0.2717,0.2765,0.2778,0.2735,0.2894,0.2794,0.2808,0.2838,0.293,0.2963,0.2992,0.2622,0.2621,0.2621,0,0,0.2655,0.2657,0.2709,0.2744,0.2792,0.2803,0.2823,0.2849,0.2866,0.2909,0.2873,0.2902,0.2883,0.2903,0.29,0.3002,0.2984,0.2983,0.3114,0.3206,0.3235,0.3261,0.3344,0.3376,0.2988,0.2989,0.2989,0,0.2656,0.2722,0.2729,0.2796,0.2834,0.2832,0.2902,0.2929,0.2957,0.2987,0.2951,0.2993,0.2966,0.3049,0.3091,0.305,0.3088,0.3043,0.3234,0.326,0.3284,0.3362,0.3395,0.2998,0.2997,0.2996,0.2995,0,0.2751,0.2802,0.2839,0.2925,0.2966,0.3026,0.3071,0.3115,0.3124,0.3148,0.323,0.3212,0.3236,0.3239,0.3199,0.335,0.332,0.3252,0.3194,0.333,0.3402,0.3433,0.3012,0.3009,0.3006,0.3003,0,0,0.2757,0.2881,0.2894,0.2942,0.3039,0.3073,0.3181,0.3266,0.3331,0.3371,0.3465,0.3505,0.3493,0.3492,0.3457,0.3543,0.3746,0.3482,0.3482,0.3587,0.3963,0.3873,0.3897,0.3715,0.3721,0.3726,0.3952,0,0.283,0.2954,0.3012,0.3127,0.3187,0.3238,0.3326,0.3402,0.3461,0.355,0.3582,0.3644,0.3588,0.3606,0.3697,0.3719,0.3834,0.3691,0.3796,0.38,0.3723,0.3933,0.3806,0.3991,0.3982,0.3987,0.3991,0,0.291,0.2977,0.3093,0.3209,0.3241,0.3307,0.3434,0.3517,0.3649,0.3705,0.3802,0.3812,0.3946,0.3864,0.405,0.396,0.4004,0.4027,0.4034,0.3912,0.3769,0.3848,0.4047,0.3964,0.4038,0.4034,0.4031,0,0.2882,0.3033,0.3114,0.3157,0.3288,0.3346,0.3414,0.3549,0.364,0.3803,0.3881,0.4022,0.4082,0.4187,0.4228,0.4162,0.4427,0.4321,0.43,0.4292,0.4187,0.4159,0.4338,0.4507,0.4507,0.4506,0.4505,0,0.2922,0.2984,0.3096,0.313,0.3226,0.332,0.3439,0.3542,0.3711,0.3817,0.3937,0.4051,0.4171,0.4299,0.4336,0.4431,0.4519,0.4399,0.4375,0.4244,0.422,0.4135,0.4078,0.4514,0.4513,0.4511,0.4509,0,0.2873,0.2955,0.3042,0.3168,0.3209,0.3262,0.3435,0.3516,0.3689,0.3842,0.39,0.4126,0.4286,0.4395,0.4571,0.4549,0.4538,0.4654,0.4489,0.4442,0.4282,0.4237,0.4232,0.41,0.4685,0.4685,0.4684,0,0.286,0.2898,0.3028,0.3063,0.3116,0.3215,0.3278,0.3477,0.3577,0.3862,0.3922,0.4157,0.4295,0.4545,0.4586,0.4697,0.4548,0.4608,0.4455,0.4335,0.4269,0.4076,0.395,0.4405,0.4402,0.44,0.4399,0,0.2822,0.2862,0.2918,0.2994,0.3056,0.3146,0.3255,0.3344,0.3558,0.3711,0.3926,0.4081,0.4329,0.441,0.455,0.458,0.4397,0.4562,0.4506,0.4156,0.3895,0.3731,0.4186,0.4379,0.4381,0.4383,0.4384,0.4385,0.2777,0.2797,0.2864,0.2929,0.299,0.3051,0.3094,0.3227,0.3383,0.358,0.3797,0.3964,0.4195,0.4384,0.4394,0.433,0.4265,0.422,0.4211,0.4051,0.382,0.4228,0.4324,0.4326,0.4327,0.4328,0.4329,0,0.2743,0.2761,0.2799,0.2868,0.2883,0.2956,0.3056,0.3084,0.3194,0.3402,0.3584,0.379,0.3936,0.4075,0.4145,0.4026,0.3827,0.3929,0.3668,0.3583,0.4046,0.3927,0.3856,0.3856,0.3856,0.3856,0.3857,0.3857,0.273,0.2741,0.2754,0.2753,0.278,0.2779,0.2809,0.2865,0.2985,0.3112,0.322,0.339,0.3722,0.3989,0.395,0.3842,0.3549,0.3412,0.3369,0.375,0.3776,0.38,0.3678,0.3557,0.3556,0.2756,0.2751,0.2747]},{"header":{"parameterUnit":"m.s-1","parameterCategory":2,"la1":30.2991,"la2":30.254,"lo1":-89.0895,"lo2":-89.0444,"dy":0.0017,"dx":0.0017,"nx":28,"ny":28,"refTime":"2025-04-25T09:00:00:Z","depth":"0","parameterNumber":3,"parameterNumberName":"V-component_of_CURRENTS"},"data":[0,0,0,0,0,0,0,0,0,0,0,0,0,0,0,0,0,0,0,0,0,0,0,0,0,0,0,0,0,0,0,0,0,0,0,0,0,0,0,0,0,0,0,0,0,0,0,0,0,0,0,0,0,0,0,0,0,0,0.003,0.0029,0,-0.0068,-0.0069,-0.0071,-0.0124,-0.0124,-0.0123,-0.0123,-0.0287,-0.0292,-0.0296,0,0,0,0,0,0,0,0,0,0,0,0,0,0.0003,0.0005,0.003,0.0029,0.0028,-0.0068,-0.007,-0.0071,-0.0124,-0.0124,-0.0123,-0.0123,-0.0286,-0.0291,-0.0297,0,0,0,0,0,0,0,0,0,0,0,0,0,-0.0031,0.0005,0.003,-0.0007,-0.0012,-0.0068,-0.007,-0.0072,-0.0124,-0.0124,-0.0123,-0.0123,-0.0284,-0.0291,-0.0297,-0.0345,0,0,-0.0318,-0.0321,0,0,0,0,0,0,0,0,-0.0029,-0.0031,-0.0001,-0.0005,-0.001,-0.0081,-0.0139,-0.0165,-0.0124,-0.0085,-0.0123,-0.0123,-0.0223,-0.0234,-0.0257,-0.0352,-0.0359,-0.0319,-0.0323,-0.0326,-0.0328,0,0,0,0,0,0,0,-0.0026,-0.0028,-0.0012,-0.0002,-0.0007,-0.0077,-0.008,-0.0145,-0.0157,-0.0088,-0.0091,-0.0097,-0.0226,-0.025,-0.0261,-0.0362,-0.0319,-0.0325,-0.0329,-0.0332,-0.0487,-0.0487,0,0,0,0,0,0,0.0001,-0.0024,-0.0009,-0.0015,-0.0016,-0.0076,-0.008,-0.0061,-0.0155,-0.0168,-0.0097,-0.0099,-0.0239,-0.0253,-0.0267,-0.029,-0.0326,-0.0332,-0.0336,-0.0486,-0.0487,-0.0487,0,0,0,0,0,0,0.0001,0.0004,-0.0005,-0.0021,-0.0027,-0.0074,-0.0053,-0.0063,-0.0084,-0.0161,-0.0176,-0.0107,-0.0239,-0.0258,-0.0315,-0.0298,-0.0335,-0.0341,-0.0486,-0.0486,-0.0487,-0.0361,0,0,0,0,0,0,0.0001,0.0006,0.002,-0.0018,-0.0025,-0.0027,-0.0053,-0.0065,-0.0087,-0.009,-0.0175,-0.019,-0.024,-0.0304,-0.0322,-0.0308,-0.0347,-0.0486,-0.0486,-0.0487,-0.0365,-0.0357,-0.035,0,0,0,0,0,0.0001,0.0027,0.0022,0.0023,0.0002,-0.0027,-0.0037,-0.0074,-0.0087,-0.0093,-0.0147,-0.0187,-0.0317,-0.031,-0.033,-0.0319,-0.0486,-0.0486,-0.0487,-0.0369,-0.0359,-0.035,0,0,0,0,0,0,0.0023,0.0023,0.0017,0.0043,0.0015,-0.0034,-0.0043,-0.0069,-0.0118,-0.0119,-0.0194,-0.0213,-0.0255,-0.0312,-0.0302,-0.0366,-0.0407,-0.0411,-0.031,-0.0302,-0.0294,-0.0248,-0.0352,0,0,0,0,0,0.0038,0.0058,0.0036,0.0053,0.0046,0.0001,-0.0017,-0.0037,-0.0081,-0.0102,-0.0158,-0.022,-0.0273,-0.0305,-0.0363,-0.0404,-0.0434,-0.0411,-0.0403,-0.0396,-0.0374,-0.0422,-0.0415,-0.0487,-0.0487,-0.0487,0,0,0.005,0.0052,0.0063,0.0058,0.0034,0.0041,-0.0009,-0.0024,-0.0019,-0.0114,-0.0132,-0.0198,-0.028,-0.0315,-0.0339,-0.0359,-0.0386,-0.0396,-0.0389,-0.0371,-0.0421,-0.0413,-0.0407,-0.0487,-0.0487,-0.0487,0,0,0.0092,0.009,0.0124,0.011,0.0091,0.0065,0.0067,0.0027,0.0007,-0.0025,-0.0084,-0.0132,-0.0224,-0.0264,-0.0301,-0.0291,-0.0343,-0.0319,-0.0243,-0.0289,-0.0283,-0.0277,-0.0274,-0.027,-0.0315,-0.0315,-0.0314,0,0.0109,0.0158,0.0122,0.0148,0.0149,0.0087,0.0119,0.0085,0.0032,0.0024,-0.0013,-0.0118,-0.0191,-0.0221,-0.0217,-0.0269,-0.0292,-0.0265,-0.0275,-0.0271,-0.0268,-0.0266,-0.0263,-0.0309,-0.0309,-0.031,-0.0311,0,0.0182,0.0211,0.0225,0.0249,0.0237,0.025,0.0213,0.0195,0.0159,0.013,0.009,-0.0007,-0.0063,-0.0101,-0.0159,-0.0171,-0.0191,-0.0255,-0.0287,-0.0252,-0.0254,-0.0252,-0.03,-0.0302,-0.0304,-0.0305,0,0,0.0256,0.0278,0.0285,0.0316,0.0298,0.0304,0.0303,0.0296,0.0315,0.0239,0.0256,0.015,0.01,0.0055,-0.0026,-0.0072,-0.0069,-0.0145,-0.0151,-0.0118,-0.0134,-0.0145,-0.0146,-0.0141,-0.0141,-0.0141,-0.0131,0,0.0331,0.041,0.0393,0.0459,0.0498,0.0443,0.0448,0.0426,0.0397,0.039,0.029,0.0263,0.0158,0.0135,0.0075,-0.0034,-0.0066,-0.0063,-0.0192,-0.0194,-0.0192,-0.0145,-0.0142,-0.0134,-0.013,-0.013,-0.013,0,0.0426,0.0465,0.0548,0.0581,0.0592,0.0608,0.0625,0.0623,0.0583,0.0565,0.0521,0.0437,0.0371,0.0263,0.0126,0.0131,0.0019,-0.0072,-0.0075,-0.0128,-0.0205,-0.0179,-0.0133,-0.0334,-0.0129,-0.0129,-0.0129,0,0.0519,0.058,0.0653,0.0665,0.0681,0.0699,0.0699,0.0678,0.0708,0.0681,0.0702,0.0597,0.0562,0.0399,0.0211,0.0166,0.0065,-0.0027,-0.0133,-0.0134,-0.0176,-0.0181,-0.032,-0.0122,-0.0122,-0.0122,-0.0122,0,0.0621,0.0678,0.0702,0.0741,0.0823,0.0791,0.0868,0.0855,0.0866,0.0923,0.0798,0.083,0.0588,0.0487,0.0288,0.0112,0.0126,-0.009,-0.0133,-0.013,-0.0131,-0.0346,-0.0474,-0.0121,-0.0121,-0.0122,-0.0122,0,0.0712,0.0727,0.0815,0.0852,0.0871,0.0925,0.0985,0.1038,0.1031,0.1105,0.1101,0.1028,0.09,0.0664,0.0431,0.024,-0.0071,-0.0028,0.0023,-0.0016,-0.0323,-0.0443,-0.0626,-0.0725,-0.0135,-0.0135,-0.0136,0,0.0765,0.0821,0.0905,0.096,0.098,0.1055,0.1104,0.1124,0.1198,0.1233,0.1285,0.1193,0.117,0.0859,0.0491,0.0182,-0.0055,-0.0031,-0.0139,-0.031,-0.0477,-0.0574,-0.0651,-0.013,-0.013,-0.013,-0.013,0,0.086,0.0885,0.0951,0.1071,0.1144,0.1243,0.1321,0.1411,0.1434,0.1516,0.1605,0.1593,0.1286,0.0987,0.0545,0.0302,-0.0183,-0.0044,-0.0255,-0.0497,-0.058,-0.0704,-0.0134,-0.0131,-0.0131,-0.0131,-0.0131,-0.0131,0.0916,0.0984,0.1068,0.1185,0.1277,0.14,0.1497,0.1605,0.1749,0.187,0.1852,0.1887,0.142,0.0827,0.0471,-0.0181,-0.0209,-0.0391,-0.0518,-0.0594,-0.0715,-0.0116,-0.0156,-0.0156,-0.0156,-0.0156,-0.0156,0,0.0976,0.1054,0.1173,0.1305,0.1419,0.1455,0.1619,0.1729,0.1915,0.2052,0.2149,0.1954,0.1382,0.0767,-0.0109,-0.0563,-0.0753,-0.0819,-0.0973,-0.103,-0.0517,-0.0544,-0.063,-0.063,-0.063,-0.063,-0.0629,-0.0629,0.1006,0.1121,0.119,0.1391,0.1489,0.1647,0.1748,0.1926,0.2068,0.2254,0.2298,0.2296,0.1828,0.0267,-0.0768,-0.1004,-0.1353,-0.1432,-0.1595,-0.127,-0.1241,-0.1213,-0.1268,-0.1505,-0.1506,-0.2051,-0.2057,-0.2061]}],[{"header":{"parameterUnit":"m.s-1","parameterCategory":2,"la1":30.2991,"la2":30.254,"lo1":-89.0895,"lo2":-89.0444,"dy":0.0017,"dx":0.0017,"nx":28,"ny":28,"refTime":"2025-04-25T09:00:00:Z","depth":"2","parameterNumber":2,"parameterNumberName":"U-component_of_CURRENTS"},"data":[0,0,0,0,0,0,0,0,0,0,0,0,0,0,0,0,0,0,0,0,0,0,0,0,0,0,0,0,0,0,0,0,0,0,0,0,0,0,0,0,0,0,0,0,0,0,0,0,0,0,0,0,0,0,0,0,0,0,0.2781,0.2781,0,0.2746,0.2746,0.2746,0.2855,0.2858,0.286,0.2863,0.2845,0.2842,0.2839,0,0,0,0,0,0,0,0,0,0,0,0,0,0.2762,0.2763,0.2782,0.2781,0.2779,0.2745,0.2746,0.2746,0.2854,0.2858,0.2861,0.2864,0.2846,0.2843,0.2839,0,0,0,0,0,0,0,0,0,0,0,0,0,0.2759,0.2764,0.2782,0.2825,0.2828,0.2745,0.2746,0.2746,0.2854,0.2858,0.2862,0.2866,0.2847,0.2843,0.2839,0.2729,0,0,0.2825,0.2823,0,0,0,0,0,0,0,0,0.276,0.2761,0.2819,0.2821,0.2825,0.2803,0.2732,0.2739,0.2853,0.2851,0.2863,0.2868,0.2825,0.2823,0.2816,0.2728,0.2728,0.2824,0.2822,0.282,0.2819,0,0,0,0,0,0,0,0.276,0.2762,0.2774,0.2818,0.2821,0.2782,0.2789,0.2733,0.2821,0.2851,0.2857,0.2841,0.2829,0.2821,0.2817,0.2727,0.2825,0.2821,0.2818,0.2816,0.2782,0.2784,0,0,0,0,0,0,0.2756,0.2763,0.2775,0.2772,0.2794,0.278,0.2787,0.2811,0.2822,0.2825,0.2838,0.2846,0.2826,0.2822,0.2816,0.2879,0.282,0.2816,0.2813,0.278,0.2783,0.2785,0,0,0,0,0,0,0.2756,0.2759,0.2777,0.2759,0.2758,0.2776,0.2802,0.2808,0.2831,0.281,0.2816,0.2858,0.2829,0.2823,0.2824,0.2873,0.2814,0.281,0.2778,0.2781,0.2784,0.2881,0,0,0,0,0,0,0.2757,0.276,0.2804,0.276,0.2759,0.2761,0.2797,0.2804,0.281,0.2822,0.2827,0.2829,0.2832,0.2831,0.2819,0.2865,0.2806,0.2776,0.278,0.2783,0.2876,0.2887,0.2897,0,0,0,0,0,0.2757,0.2781,0.2807,0.2809,0.281,0.276,0.2758,0.2786,0.2807,0.2822,0.2842,0.283,0.2846,0.2827,0.2814,0.286,0.2774,0.2779,0.2783,0.2871,0.2885,0.2896,0,0,0,0,0,0,0.2761,0.2791,0.282,0.2848,0.2825,0.2778,0.2789,0.2784,0.2804,0.2822,0.2821,0.2823,0.2862,0.2826,0.2806,0.2864,0.2818,0.282,0.2891,0.2903,0.2913,0.2909,0.2802,0,0,0,0,0,0.2786,0.2822,0.282,0.2822,0.2837,0.2813,0.2803,0.2801,0.2791,0.2806,0.2823,0.2837,0.2854,0.2853,0.2862,0.2845,0.2835,0.2877,0.2888,0.2897,0.2887,0.2912,0.2924,0.2798,0.2798,0.2798,0,0,0.2776,0.2789,0.281,0.2826,0.2822,0.283,0.2822,0.2795,0.2813,0.2791,0.2854,0.2868,0.2862,0.2899,0.291,0.2878,0.2934,0.2902,0.2909,0.2894,0.2918,0.293,0.2941,0.2801,0.28,0.28,0,0,0.2756,0.2803,0.2853,0.2829,0.282,0.2823,0.282,0.2811,0.2853,0.2862,0.2894,0.2922,0.293,0.2955,0.2959,0.3007,0.2999,0.3032,0.3063,0.309,0.31,0.3109,0.314,0.3151,0.3025,0.3025,0.3025,0,0.2757,0.2799,0.2839,0.2845,0.2827,0.283,0.2837,0.286,0.2852,0.2875,0.2906,0.2967,0.2958,0.3004,0.3048,0.303,0.3051,0.3018,0.3103,0.3111,0.3119,0.3149,0.3159,0.303,0.3029,0.3029,0.3028,0,0.2739,0.279,0.2787,0.2842,0.2845,0.2808,0.2851,0.2887,0.2932,0.2944,0.3023,0.3043,0.3079,0.3098,0.3083,0.3146,0.315,0.3125,0.3071,0.3137,0.3165,0.3174,0.3037,0.3036,0.3034,0.3033,0,0,0.2699,0.2784,0.2784,0.2814,0.2822,0.281,0.2875,0.2923,0.2971,0.302,0.3084,0.3137,0.3163,0.3169,0.3185,0.3199,0.3276,0.3191,0.319,0.3221,0.336,0.3339,0.3346,0.3284,0.3285,0.3286,0.3369,0,0.268,0.2725,0.2766,0.2787,0.2821,0.2837,0.2899,0.2931,0.3002,0.3075,0.3115,0.3185,0.3192,0.3232,0.3257,0.3286,0.3301,0.3256,0.329,0.3291,0.3262,0.3356,0.3116,0.3168,0.3378,0.3379,0.338,0,0.2652,0.2693,0.2745,0.2805,0.2824,0.283,0.2914,0.2963,0.3057,0.3125,0.3201,0.3243,0.3315,0.3295,0.3386,0.3373,0.3368,0.337,0.3373,0.3317,0.3285,0.3129,0.3176,0.3395,0.3394,0.3393,0.3392,0,0.26,0.2666,0.2721,0.2709,0.2796,0.2819,0.2862,0.2958,0.303,0.3155,0.3214,0.3319,0.3384,0.3421,0.3458,0.3435,0.3534,0.3493,0.3462,0.3461,0.3239,0.3216,0.3511,0.3511,0.3511,0.351,0.351,0,0.2539,0.2561,0.2696,0.2688,0.2732,0.2798,0.2865,0.2934,0.3059,0.3125,0.3236,0.3316,0.3418,0.3484,0.3494,0.3543,0.3575,0.3487,0.3486,0.3271,0.325,0.3416,0.3404,0.3513,0.3513,0.3512,0.3512,0,0.2449,0.2544,0.2586,0.2685,0.2709,0.2729,0.2828,0.288,0.303,0.3124,0.3166,0.3338,0.3452,0.3529,0.3599,0.3591,0.3621,0.36,0.3356,0.3325,0.3518,0.351,0.3595,0.3595,0.3595,0.3595,0.3595,0,0.2411,0.2439,0.2545,0.2575,0.2604,0.2662,0.2695,0.2841,0.2909,0.312,0.3145,0.3306,0.3393,0.3545,0.3572,0.3622,0.3628,0.3394,0.3285,0.3538,0.3529,0.3521,0.3514,0.3038,0.3033,0.303,0.3027,0,0.2315,0.2366,0.2412,0.2475,0.2509,0.255,0.2609,0.2666,0.2844,0.2934,0.3066,0.3156,0.3337,0.332,0.342,0.34,0.3385,0.3321,0.3648,0.3064,0.3023,0.3011,0.302,0.2994,0.2997,0.2999,0.3001,0.3002,0.2237,0.2239,0.2324,0.2355,0.2414,0.2432,0.2408,0.2507,0.2592,0.2713,0.2886,0.2953,0.3069,0.3121,0.3062,0.304,0.3254,0.3105,0.3112,0.3123,0.3055,0.3017,0.2974,0.2977,0.298,0.2982,0.2984,0,0.2145,0.2154,0.2189,0.2229,0.2233,0.2305,0.2345,0.2322,0.2347,0.2515,0.2618,0.2514,0.2563,0.266,0.2595,0.264,0.2564,0.2522,0.2386,0.2425,0.2459,0.2349,0.2084,0.208,0.2077,0.2074,0,0,0.2098,0.2088,0.2096,0.2057,0.2081,0.2027,0.2022,0.2019,0.2104,0.2138,0.2185,0.2447,0.2599,0.2283,0.2288,0.2163,0.2255,0.2087,0.2827,0.2707,0.2734,0.2838,0.2722,0,0,0,0,0]},{"header":{"parameterUnit":"m.s-1","parameterCategory":2,"la1":30.2991,"la2":30.254,"lo1":-89.0895,"lo2":-89.0444,"dy":0.0017,"dx":0.0017,"nx":28,"ny":28,"refTime":"2025-04-25T09:00:00:Z","depth":"2","parameterNumber":3,"parameterNumberName":"V-component_of_CURRENTS"},"data":[0,0,0,0,0,0,0,0,0,0,0,0,0,0,0,0,0,0,0,0,0,0,0,0,0,0,0,0,0,0,0,0,0,0,0,0,0,0,0,0,0,0,0,0,0,0,0,0,0,0,0,0,0,0,0,0,0,0,-0.0003,-0.0003,0,-0.0046,-0.0047,-0.0047,-0.013,-0.0132,-0.0133,-0.0134,-0.0207,-0.0207,-0.0208,0,0,0,0,0,0,0,0,0,0,0,0,0,0.0033,0.0032,-0.0003,-0.0003,-0.0004,-0.0046,-0.0047,-0.0048,-0.013,-0.0132,-0.0133,-0.0135,-0.0206,-0.0207,-0.0208,0,0,0,0,0,0,0,0,0,0,0,0,0,0.0003,0.0032,-0.0003,-0.0047,-0.0051,-0.0045,-0.0047,-0.0048,-0.013,-0.0132,-0.0134,-0.0135,-0.0206,-0.0207,-0.0208,-0.0176,0,0,-0.0212,-0.0212,0,0,0,0,0,0,0,0,0.0004,0.0001,-0.004,-0.0044,-0.0049,-0.0082,-0.006,-0.0091,-0.0129,-0.0104,-0.0134,-0.0136,-0.0164,-0.0168,-0.0177,-0.0179,-0.0183,-0.0212,-0.0212,-0.0213,-0.0213,0,0,0,0,0,0,0,0.0007,0.0003,-0.0024,-0.004,-0.0045,-0.0056,-0.0063,-0.0067,-0.0126,-0.0106,-0.0111,-0.011,-0.0167,-0.0176,-0.0179,-0.0184,-0.0212,-0.0213,-0.0213,-0.0214,-0.0233,-0.0232,0,0,0,0,0,0,0.002,0.0005,-0.0022,-0.0025,-0.0022,-0.0055,-0.0063,-0.0072,-0.0125,-0.0134,-0.0108,-0.0113,-0.0173,-0.0178,-0.0182,-0.0196,-0.0213,-0.0214,-0.0214,-0.0233,-0.0232,-0.0232,0,0,0,0,0,0,0.0021,0.0018,-0.0021,-0.0008,-0.0013,-0.0053,-0.0063,-0.0072,-0.0089,-0.0126,-0.0136,-0.0117,-0.0175,-0.0181,-0.02,-0.0198,-0.0214,-0.0215,-0.0233,-0.0233,-0.0232,-0.0193,0,0,0,0,0,0,0.0022,0.0018,0.0003,-0.0007,-0.0013,-0.0019,-0.0061,-0.0071,-0.0083,-0.0091,-0.0136,-0.0145,-0.0177,-0.0198,-0.0201,-0.02,-0.0216,-0.0233,-0.0233,-0.0232,-0.0194,-0.0191,-0.0189,0,0,0,0,0,0.0023,0.003,0.0003,-0.0001,-0.0028,-0.0018,-0.0022,-0.0059,-0.0081,-0.0084,-0.0122,-0.0144,-0.0199,-0.0199,-0.0202,-0.0201,-0.0233,-0.0233,-0.0232,-0.0195,-0.0192,-0.0189,0,0,0,0,0,0,0.0052,0.0022,-0.0008,-0.001,-0.0019,-0.0031,-0.0032,-0.0051,-0.0082,-0.0091,-0.0136,-0.0146,-0.017,-0.0183,-0.0181,-0.0207,-0.0221,-0.0222,-0.0192,-0.0189,-0.0186,-0.0168,-0.0217,0,0,0,0,0,0.005,0.0043,0.0016,0.0023,0.0012,-0.0011,-0.0016,-0.0032,-0.0051,-0.0067,-0.0105,-0.0139,-0.0166,-0.0176,-0.0205,-0.0201,-0.0224,-0.0205,-0.0203,-0.02,-0.0188,-0.0221,-0.022,-0.0231,-0.0231,-0.0231,0,0,0.0068,0.0054,0.0048,0.0028,0.0015,0.0018,-0.002,-0.0011,-0.0014,-0.0066,-0.0092,-0.0132,-0.0166,-0.0184,-0.0193,-0.0194,-0.0211,-0.02,-0.0197,-0.0187,-0.0221,-0.022,-0.0219,-0.0231,-0.0231,-0.0231,0,0,0.0118,0.0082,0.0084,0.0081,0.0068,0.0051,0.0055,0.0031,0.0003,-0.0011,-0.0062,-0.0095,-0.013,-0.016,-0.0176,-0.0165,-0.0202,-0.0179,-0.014,-0.0172,-0.0171,-0.0171,-0.0207,-0.021,-0.0169,-0.0169,-0.0169,0,0.0133,0.0136,0.0094,0.0106,0.0111,0.0068,0.0086,0.0062,0.0034,0.0023,-0.0015,-0.0081,-0.0117,-0.0133,-0.0143,-0.0158,-0.0186,-0.015,-0.0168,-0.0168,-0.0168,-0.0205,-0.0209,-0.0167,-0.0167,-0.0167,-0.0167,0,0.0191,0.0184,0.0199,0.0182,0.0179,0.0203,0.0163,0.0146,0.0106,0.008,0.0039,-0.0023,-0.0058,-0.0082,-0.0111,-0.0128,-0.0152,-0.0169,-0.0175,-0.0165,-0.0205,-0.0209,-0.0164,-0.0165,-0.0165,-0.0166,0,0,0.0243,0.0233,0.0235,0.0241,0.0225,0.0239,0.0228,0.021,0.0211,0.0147,0.0139,0.0067,0.0024,0.0002,-0.0048,-0.008,-0.0118,-0.0121,-0.0124,-0.0153,-0.0197,-0.0203,-0.021,-0.0143,-0.0143,-0.0143,-0.0228,0,0.0294,0.0332,0.0309,0.0348,0.0361,0.0325,0.0321,0.0302,0.0263,0.0238,0.0163,0.0133,0.0058,0.0039,-0.0009,-0.0085,-0.0128,-0.0094,-0.0206,-0.0209,-0.0212,-0.0214,-0.0182,-0.0253,-0.0233,-0.0233,-0.0234,0,0.035,0.0368,0.0411,0.0423,0.0423,0.0437,0.0435,0.0427,0.038,0.0349,0.0298,0.0236,0.0174,0.0107,-0.0023,-0.0001,-0.0096,-0.0164,-0.0169,-0.0187,-0.0223,-0.0259,-0.0263,-0.0242,-0.0242,-0.0241,-0.024,0,0.0415,0.0439,0.0478,0.049,0.0491,0.05,0.0492,0.0463,0.0474,0.0421,0.0427,0.0325,0.0288,0.0156,0.0007,-0.001,-0.0137,-0.0174,-0.0273,-0.0275,-0.0274,-0.0275,-0.027,-0.027,-0.027,-0.027,-0.0269,0,0.0482,0.0512,0.0513,0.0541,0.0587,0.0562,0.0601,0.0575,0.0566,0.0596,0.0487,0.049,0.0299,0.0202,0.0043,-0.0121,-0.0112,-0.0264,-0.0294,-0.0261,-0.0259,-0.0267,-0.0265,-0.0273,-0.0272,-0.0271,-0.0271,0,0.054,0.0543,0.0592,0.0608,0.0618,0.0647,0.068,0.0712,0.0686,0.0722,0.0715,0.0623,0.0494,0.03,0.0097,-0.0053,-0.0219,-0.0284,-0.0234,-0.0256,-0.0351,-0.0347,-0.0405,-0.0406,-0.0407,-0.0408,-0.0408,0,0.0571,0.0604,0.0646,0.0683,0.0691,0.0735,0.077,0.0766,0.0815,0.0811,0.0845,0.0739,0.0679,0.0379,0.01,-0.017,-0.0213,-0.0322,-0.0349,-0.034,-0.0364,-0.0358,-0.0353,-0.0343,-0.0343,-0.0343,-0.0343,0,0.0632,0.0644,0.0685,0.076,0.0809,0.0874,0.0928,0.0991,0.0998,0.1027,0.1053,0.1007,0.0724,0.0464,0.0096,-0.009,-0.0277,-0.0329,-0.0329,-0.0305,-0.0286,-0.0307,-0.0303,-0.0342,-0.0342,-0.0342,-0.0342,-0.0342,0.0675,0.0714,0.077,0.0842,0.0911,0.1004,0.1068,0.1142,0.1224,0.1281,0.1227,0.1169,0.0855,0.0404,0.0072,-0.0273,-0.0268,-0.0389,-0.0387,-0.0386,-0.0355,-0.0337,-0.0398,-0.0399,-0.0399,-0.0399,-0.0399,0,0.0727,0.0773,0.0848,0.0937,0.1027,0.105,0.1173,0.1244,0.1349,0.1402,0.1416,0.114,0.0836,0.0479,-0.0029,-0.0341,-0.037,-0.0434,-0.0402,-0.04,-0.0399,-0.0368,-0.0415,-0.0416,-0.0417,-0.0418,0,0,0.0755,0.0835,0.0872,0.1021,0.1092,0.1214,0.129,0.1389,0.1462,0.1513,0.1491,0.1419,0.0972,0.0608,0.0176,-0.0116,-0.0185,-0.0174,-0.0128,-0.0037,-0.0032,-0.0339,-0.0285,0,0,0,0,0]}],[{"header":{"parameterUnit":"m.s-1","parameterCategory":2,"la1":30.2991,"la2":30.254,"lo1":-89.0895,"lo2":-89.0444,"dy":0.0017,"dx":0.0017,"nx":28,"ny":28,"refTime":"2025-04-25T09:00:00:Z","depth":"4","parameterNumber":2,"parameterNumberName":"U-component_of_CURRENTS"},"data":[0,0,0,0,0,0,0,0,0,0,0,0,0,0,0,0,0,0,0,0,0,0,0,0,0,0,0,0,0,0,0,0,0,0,0,0,0,0,0,0,0,0,0,0,0,0,0,0,0,0,0,0,0,0,0,0,0,0,0.1425,0.1425,0,0.1483,0.1484,0.1484,0.1537,0.1538,0.1539,0.154,0.165,0.1652,0.1654,0,0,0,0,0,0,0,0,0,0,0,0,0,0.1329,0.133,0.1424,0.1425,0.1426,0.1483,0.1484,0.1485,0.1537,0.1538,0.1539,0.154,0.1649,0.1651,0.1654,0,0,0,0,0,0,0,0,0,0,0,0,0,0.1375,0.1331,0.1424,0.1461,0.1465,0.1483,0.1484,0.1485,0.1537,0.1538,0.1539,0.1541,0.1648,0.1651,0.1654,0.1649,0,0,0.1664,0.1666,0,0,0,0,0,0,0,0,0.1372,0.1378,0.1455,0.1459,0.1463,0.1506,0.1491,0.1543,0.1537,0.1507,0.154,0.1541,0.1607,0.1614,0.1618,0.1654,0.1659,0.1664,0.1666,0.1668,0.1669,0,0,0,0,0,0,0,0.1369,0.1376,0.1445,0.1456,0.1461,0.1465,0.1473,0.15,0.1548,0.151,0.1514,0.1524,0.161,0.1615,0.1621,0.166,0.1664,0.1667,0.1669,0.167,0.1813,0.1815,0,0,0,0,0,0,0.1367,0.1373,0.1444,0.1447,0.1423,0.1466,0.1475,0.1489,0.1547,0.1557,0.1523,0.1527,0.1608,0.1617,0.1625,0.1725,0.1668,0.1671,0.1673,0.1811,0.1814,0.1816,0,0,0,0,0,0,0.1365,0.1373,0.1441,0.1413,0.1422,0.1467,0.1482,0.149,0.153,0.1557,0.1568,0.1561,0.161,0.1621,0.1687,0.1726,0.1672,0.1675,0.1809,0.1812,0.1815,0.1858,0,0,0,0,0,0,0.1362,0.1372,0.1393,0.1413,0.1424,0.148,0.1482,0.149,0.1534,0.154,0.1592,0.1601,0.1612,0.1682,0.169,0.1729,0.1678,0.1807,0.181,0.1814,0.1855,0.1862,0.1869,0,0,0,0,0,0.1358,0.1378,0.1394,0.1403,0.1448,0.1482,0.1488,0.1521,0.1535,0.1561,0.1599,0.1602,0.171,0.1686,0.1695,0.1736,0.1805,0.1809,0.1814,0.1851,0.1861,0.1869,0,0,0,0,0,0,0.1355,0.1386,0.1403,0.1436,0.1471,0.1493,0.152,0.1539,0.1586,0.1605,0.1624,0.1636,0.1707,0.1717,0.169,0.1789,0.1759,0.1765,0.1784,0.1794,0.1801,0.1809,0.168,0,0,0,0,0,0.1361,0.1386,0.1418,0.145,0.1468,0.1499,0.1522,0.1549,0.1586,0.1609,0.1641,0.1682,0.1724,0.1756,0.1789,0.1843,0.1858,0.1877,0.1884,0.189,0.1904,0.1952,0.1965,0.1829,0.1829,0.1829,0,0,0.1369,0.1391,0.1407,0.1451,0.1479,0.1514,0.1517,0.1566,0.1603,0.1613,0.1679,0.1709,0.1743,0.1805,0.1838,0.1824,0.1938,0.1895,0.19,0.1911,0.1958,0.1971,0.1982,0.1832,0.1832,0.1831,0,0,0.1386,0.1419,0.1442,0.1477,0.153,0.1548,0.157,0.1613,0.1644,0.1704,0.1724,0.1781,0.1837,0.1872,0.1895,0.1963,0.1971,0.1978,0.2027,0.2073,0.2085,0.2095,0.2135,0.2148,0.1985,0.1985,0.1985,0,0.1398,0.1433,0.1457,0.1494,0.1528,0.1567,0.1607,0.164,0.1702,0.1734,0.1738,0.1841,0.1869,0.1948,0.1975,0.198,0.2006,0.1987,0.2082,0.2092,0.2102,0.214,0.2154,0.1988,0.1987,0.1987,0.1987,0,0.1429,0.147,0.1492,0.1547,0.1585,0.1633,0.1678,0.1727,0.1765,0.1797,0.1886,0.1924,0.1988,0.2006,0.2015,0.2104,0.21,0.208,0.2056,0.2118,0.2155,0.2169,0.1991,0.199,0.199,0.1989,0,0,0.1424,0.1497,0.1511,0.1547,0.1623,0.1657,0.1724,0.179,0.1842,0.1904,0.1972,0.2047,0.2074,0.2103,0.2125,0.2171,0.2259,0.2164,0.2165,0.2197,0.237,0.2239,0.2241,0.2258,0.2261,0.2263,0.2369,0,0.1447,0.151,0.1548,0.1625,0.166,0.1724,0.1777,0.1848,0.1904,0.1978,0.2038,0.2113,0.2108,0.2156,0.2201,0.2249,0.2299,0.2233,0.2312,0.2314,0.2184,0.2253,0.2271,0.2379,0.2383,0.2385,0.2386,0,0.1463,0.1506,0.1573,0.1659,0.1684,0.1742,0.1845,0.1902,0.2004,0.2051,0.2136,0.2182,0.2283,0.2256,0.2374,0.2336,0.2365,0.2389,0.2393,0.2265,0.2208,0.2305,0.2411,0.2409,0.2408,0.2406,0.2404,0,0.143,0.1524,0.1577,0.1612,0.1711,0.1769,0.1834,0.1932,0.1993,0.2115,0.218,0.2277,0.2357,0.2407,0.2466,0.2435,0.2578,0.2531,0.2441,0.2432,0.2497,0.2485,0.2612,0.2611,0.2611,0.2611,0.2611,0,0.1421,0.1475,0.1574,0.161,0.1685,0.1767,0.1858,0.1933,0.2052,0.2123,0.2225,0.2296,0.2403,0.2489,0.2509,0.2524,0.2616,0.2468,0.2455,0.2514,0.2503,0.2507,0.2494,0.2615,0.2614,0.2613,0.2613,0,0.137,0.1438,0.1507,0.1626,0.1669,0.1727,0.187,0.1929,0.2057,0.2159,0.2211,0.2357,0.2458,0.2546,0.2642,0.2578,0.2603,0.2585,0.2667,0.2655,0.2413,0.2401,0.2482,0.2479,0.2476,0.2473,0.2471,0,0.1345,0.1374,0.1502,0.1544,0.1608,0.1706,0.1767,0.1909,0.1973,0.2167,0.2207,0.2372,0.2445,0.2483,0.2572,0.2614,0.2584,0.2579,0.2469,0.2423,0.2404,0.2396,0.2388,0.2466,0.2465,0.2464,0.2463,0,0.1294,0.1351,0.1404,0.1487,0.1564,0.1631,0.1739,0.1778,0.1934,0.2076,0.2152,0.2216,0.2331,0.2394,0.2463,0.2477,0.2565,0.2546,0.2551,0.2447,0.2404,0.2386,0.2382,0.2453,0.2454,0.2455,0.2456,0,0.1257,0.1272,0.1346,0.1408,0.1492,0.153,0.1599,0.1681,0.1763,0.1974,0.1992,0.2156,0.2297,0.2326,0.238,0.2399,0.2352,0.226,0.2279,0.2292,0.2181,0.2095,0.2055,0,0,0,0,0,0.1205,0.1211,0.1263,0.1316,0.1394,0.1443,0.1565,0.1638,0.1793,0.1798,0.1891,0.1979,0.2065,0.2154,0.2138,0.2306,0.2366,0.2277,0.227,0.2393,0.2406,0.2292,0,0,0,0,0,0,0.1169,0.1208,0.1224,0.1224,0.1245,0.1313,0.1383,0.149,0.1504,0.1671,0.1732,0.186,0.1979,0.2052,0.2096,0.2126,0.2083,0.2386,0.2381,0.2386,0.2397,0.2407,0.2295,0,0,0,0,0]},{"header":{"parameterUnit":"m.s-1","parameterCategory":2,"la1":30.2991,"la2":30.254,"lo1":-89.0895,"lo2":-89.0444,"dy":0.0017,"dx":0.0017,"nx":28,"ny":28,"refTime":"2025-04-25T09:00:00:Z","depth":"4","parameterNumber":3,"parameterNumberName":"V-component_of_CURRENTS"},"data":[0,0,0,0,0,0,0,0,0,0,0,0,0,0,0,0,0,0,0,0,0,0,0,0,0,0,0,0,0,0,0,0,0,0,0,0,0,0,0,0,0,0,0,0,0,0,0,0,0,0,0,0,0,0,0,0,0,0,0.018,0.018,0,0.0133,0.0132,0.0132,0.0109,0.0109,0.0109,0.0109,0.0055,0.0053,0.0052,0,0,0,0,0,0,0,0,0,0,0,0,0,0.0203,0.0203,0.0181,0.018,0.0179,0.0133,0.0132,0.0131,0.0109,0.0109,0.0109,0.0109,0.0055,0.0054,0.0052,0,0,0,0,0,0,0,0,0,0,0,0,0,0.0179,0.0203,0.0181,0.0162,0.016,0.0133,0.0132,0.0131,0.0109,0.0109,0.0109,0.0109,0.0056,0.0054,0.0052,0.004,0,0,0.0045,0.0044,0,0,0,0,0,0,0,0,0.018,0.0178,0.0165,0.0163,0.0161,0.0126,0.012,0.01,0.0109,0.0129,0.0109,0.0109,0.0078,0.0074,0.0066,0.0037,0.0035,0.0045,0.0044,0.0043,0.0042,0,0,0,0,0,0,0,0.0182,0.018,0.0162,0.0165,0.0162,0.0138,0.0136,0.0116,0.0105,0.0128,0.0126,0.0119,0.0076,0.0068,0.0065,0.0034,0.0045,0.0043,0.0042,0.0041,-0.0003,-0.0002,0,0,0,0,0,0,0.0189,0.0182,0.0164,0.0161,0.0169,0.0138,0.0135,0.0138,0.0105,0.01,0.0119,0.0118,0.0072,0.0067,0.0063,0.0053,0.0043,0.0041,0.004,-0.0003,-0.0003,-0.0002,0,0,0,0,0,0,0.019,0.0188,0.0166,0.0169,0.0164,0.0138,0.0141,0.0137,0.0132,0.0099,0.0093,0.0119,0.0072,0.0066,0.0049,0.005,0.004,0.0038,-0.0003,-0.0003,-0.0002,0.003,0,0,0,0,0,0,0.0191,0.0189,0.0195,0.017,0.0164,0.0158,0.0141,0.0136,0.0127,0.0126,0.0097,0.0091,0.0071,0.0052,0.0047,0.0047,0.0036,-0.0003,-0.0003,-0.0003,0.0029,0.0031,0.0033,0,0,0,0,0,0.0192,0.0203,0.0196,0.0193,0.0173,0.0158,0.0153,0.0134,0.0127,0.0129,0.0108,0.0092,0.005,0.0051,0.0044,0.0044,-0.0003,-0.0003,-0.0003,0.0028,0.003,0.0033,0,0,0,0,0,0,0.0216,0.02,0.0192,0.0198,0.0182,0.0154,0.0153,0.0139,0.0123,0.0121,0.0093,0.0086,0.0072,0.0055,0.0056,0.0032,0.0021,0.002,0.0046,0.0049,0.0051,0.0063,0.0035,0,0,0,0,0,0.0224,0.0228,0.0206,0.021,0.0205,0.018,0.0172,0.0158,0.0138,0.0131,0.0111,0.0088,0.0067,0.0056,0.0037,0.0023,-0.0005,0.0019,0.0021,0.0024,0.0029,-0.0014,-0.0015,-0.0002,-0.0002,-0.0002,0,0,0.0234,0.0225,0.0227,0.0216,0.0202,0.0199,0.0176,0.0166,0.0163,0.0128,0.0122,0.0096,0.0066,0.0051,0.0043,0.0037,0.0003,0.0024,0.0026,0.003,-0.0014,-0.0016,-0.0017,-0.0001,-0.0002,-0.0002,0,0,0.0254,0.025,0.0259,0.0248,0.023,0.0215,0.0215,0.0191,0.0182,0.0168,0.0142,0.0119,0.0091,0.0067,0.0051,0.0055,0.0018,0.0049,0.0067,0.0025,0.0024,0.0022,-0.0022,-0.0028,0.0048,0.0049,0.0049,0,0.0265,0.0275,0.0258,0.0261,0.0257,0.0226,0.0234,0.0218,0.0191,0.0186,0.0173,0.0124,0.0098,0.0073,0.0074,0.006,0.0029,0.006,0.0028,0.0026,0.0024,-0.0021,-0.0028,0.005,0.005,0.005,0.005,0,0.0286,0.0296,0.03,0.0297,0.0291,0.0291,0.0269,0.0261,0.0244,0.0226,0.0201,0.0158,0.0131,0.0115,0.0095,0.0067,0.0048,0.0037,0.0022,0.0024,-0.0023,-0.0031,0.0052,0.0052,0.0051,0.0051,0,0,0.0308,0.0315,0.0317,0.0328,0.0312,0.0312,0.0307,0.0296,0.0297,0.0259,0.0252,0.0205,0.0179,0.016,0.0124,0.0084,0.0037,0.0058,0.0055,0.0015,-0.0061,-0.0057,-0.0066,0.0018,0.0017,0.0016,-0.0089,0,0.0329,0.0353,0.0347,0.0371,0.0383,0.036,0.0361,0.0344,0.0325,0.031,0.0255,0.0237,0.0197,0.0183,0.0135,0.0066,0.0019,0.0067,-0.0058,-0.0062,-0.0058,-0.0073,0.0013,-0.0095,-0.0097,-0.0099,-0.01,0,0.0349,0.0365,0.0397,0.0416,0.0419,0.0427,0.0428,0.0424,0.039,0.0374,0.0335,0.0296,0.0235,0.0202,0.0075,0.0106,0.0028,-0.0032,-0.0038,-0.0049,-0.0072,-0.0098,-0.0114,-0.0113,-0.0112,-0.0111,-0.011,0,0.0372,0.04,0.0432,0.0437,0.045,0.0461,0.0463,0.0444,0.0456,0.0415,0.0416,0.0331,0.0296,0.0186,0.0067,0.0067,-0.0077,-0.0093,-0.0169,-0.017,-0.0156,-0.0153,-0.0187,-0.0187,-0.0187,-0.0186,-0.0186,0,0.0394,0.0421,0.045,0.0466,0.0507,0.0499,0.0531,0.0516,0.0511,0.0529,0.0455,0.0442,0.0291,0.0197,0.0076,-0.0067,-0.0074,-0.0169,-0.0197,-0.0141,-0.0135,-0.0162,-0.0158,-0.019,-0.019,-0.0189,-0.0188,0,0.0413,0.043,0.0473,0.0504,0.0521,0.0548,0.0588,0.0609,0.0594,0.0613,0.0606,0.0521,0.0394,0.024,0.0057,-0.0043,-0.0187,-0.0237,-0.0166,-0.0187,-0.0258,-0.0251,-0.0337,-0.0338,-0.0339,-0.0339,-0.034,0,0.0422,0.0447,0.0506,0.0542,0.0562,0.0605,0.0638,0.0647,0.0678,0.0663,0.0677,0.057,0.0492,0.0239,0.0064,-0.0175,-0.0206,-0.0288,-0.0277,-0.0255,-0.0274,-0.0266,-0.0258,-0.0341,-0.0341,-0.0341,-0.0341,0,0.0441,0.0467,0.0505,0.0578,0.063,0.0689,0.0738,0.0769,0.078,0.0775,0.0737,0.0605,0.0458,0.025,0.0065,-0.0106,-0.0239,-0.0295,-0.0295,-0.0285,-0.026,-0.0276,-0.0268,-0.0343,-0.0343,-0.0343,-0.0343,0,0.0459,0.0489,0.0545,0.061,0.068,0.0748,0.0771,0.0806,0.0832,0.0819,0.0801,0.0638,0.054,0.0286,0.0116,-0.0053,-0.01,-0.0159,-0.0167,-0.0167,-0.0084,-0.0026,-0.0063,0,0,0,0,0,0.047,0.0509,0.0571,0.0644,0.0716,0.0763,0.0832,0.0851,0.0868,0.0855,0.0833,0.0697,0.0441,0.0328,0.0161,0.009,-0.0139,-0.0114,-0.0212,-0.0355,-0.0353,-0.0285,0,0,0,0,0,0,0.0479,0.0537,0.057,0.0664,0.0721,0.0805,0.0853,0.0869,0.0862,0.0851,0.0722,0.0653,0.0407,0.0542,0.0158,0.0105,0.0018,-0.0233,-0.0237,-0.0357,-0.0355,-0.0353,-0.0282,0,0,0,0,0]}]]